When you browse on this site, cookies collect data to enhance your experience and personalize the content and advertising you see.
Visit our Privacy Policy to learn more. By continuing to use the site, you agree to this use of cookies and data.
  • In Sweden
  • List of Countries
  • For 7 days
  • Water Temperature
  • Weather Map
  • Weather Widgets
  • user-avatar
    Login

    Hourly Weather Billingham

    Today, 26 August, Monday

    Time Temperature Precipitation Wind Pressure Humidity
    00:00 +19°C° 0 mm 2 mps 762 mmHg 78%
    01:00 +19°C° 0 mm 2 mps 762 mmHg 80%
    02:00 +18°C° 0 mm 2 mps 762 mmHg 81%
    03:00 +18°C° 0 mm 2 mps 762 mmHg 83%
    04:00 +18°C° 0 mm 2 mps 762 mmHg 84%
    05:00 +19°C° 0 mm 1 mps 762 mmHg 85%
    06:00 +19°C° 0 mm 1 mps 762 mmHg 86%
    07:00 +21°C° 0 mm 1 mps 762 mmHg 80%
    08:00 +22°C° 0 mm 1 mps 762 mmHg 74%
    09:00 +24°C° 0 mm 1 mps 762 mmHg 69%
    10:00 +25°C° 0 mm 1 mps 762 mmHg 64%
    11:00 +26°C° 0 mm 2 mps 762 mmHg 60%
    12:00 +28°C° 0 mm 2 mps 761 mmHg 56%
    13:00 +28°C° 0 mm 2 mps 761 mmHg 55%
    14:00 +28°C° 0 mm 3 mps 761 mmHg 55%
    15:00 +28°C° 0 mm 3 mps 761 mmHg 54%
    16:00 +27°C° 0 mm 3 mps 761 mmHg 60%
    17:00 +26°C° 0 mm 2 mps 761 mmHg 67%
    18:00 +25°C° 0 mm 2 mps 760 mmHg 73%
    19:00 +24°C° 0 mm 2 mps 761 mmHg 78%
    20:00 +21°C° 0 mm 2 mps 761 mmHg 82%
    21:00 +20°C° 0 mm 2 mps 761 mmHg 87%
    22:00 +20°C° 0 mm 1 mps 761 mmHg 87%
    23:00 +20°C° 0 mm 1 mps 761 mmHg 88%

    Tomorrow, 27 August, Tuesday

    Time Temperature Precipitation Wind Pressure Humidity
    00:00 +19°C° 0 mm 1 mps 761 mmHg 89%
    01:00 +19°C° 0 mm 1 mps 760 mmHg 90%
    02:00 +19°C° 0 mm 1 mps 760 mmHg 90%
    03:00 +19°C° 0 mm 1 mps 760 mmHg 90%
    04:00 +17°C° 0 mm 0 mps 760 mmHg 90%
    05:00 +17°C° 0 mm 0 mps 760 mmHg 90%
    06:00 +17°C° 0 mm 0 mps 760 mmHg 90%
    07:00 +20°C° 0 mm 1 mps 760 mmHg 85%
    08:00 +22°C° 0 mm 1 mps 760 mmHg 81%
    09:00 +23°C° 0 mm 1 mps 760 mmHg 76%
    10:00 +23°C° 0 mm 2 mps 759 mmHg 74%
    11:00 +23°C° 0 mm 2 mps 759 mmHg 72%
    12:00 +23°C° 0 mm 2 mps 759 mmHg 70%
    13:00 +24°C° 0.1 mm 2 mps 759 mmHg 68%
    14:00 +24°C° 0.1 mm 2 mps 759 mmHg 66%
    15:00 +25°C° 0.1 mm 2 mps 758 mmHg 64%
    16:00 +24°C° 0 mm 2 mps 758 mmHg 67%
    17:00 +23°C° 0 mm 2 mps 758 mmHg 71%
    18:00 +21°C° 0 mm 2 mps 758 mmHg 74%
    19:00 +20°C° 0 mm 2 mps 758 mmHg 77%
    20:00 +19°C° 0 mm 2 mps 758 mmHg 79%
    21:00 +17°C° 0 mm 2 mps 759 mmHg 81%
    22:00 +18°C° 0 mm 1 mps 758 mmHg 81%
    23:00 +18°C° 0 mm 1 mps 758 mmHg 81%

    Day after tomorrow, 28 August, Wednesday

    Time Temperature Precipitation Wind Pressure Humidity
    00:00 +18°C° 0 mm 1 mps 758 mmHg 81%
    01:00 +18°C° 0 mm 1 mps 758 mmHg 80%
    02:00 +18°C° 0 mm 1 mps 758 mmHg 78%
    03:00 +17°C° 0 mm 2 mps 757 mmHg 77%
    04:00 +17°C° 0 mm 2 mps 757 mmHg 77%
    05:00 +17°C° 0 mm 2 mps 757 mmHg 76%
    06:00 +17°C° 0 mm 2 mps 757 mmHg 75%
    07:00 +18°C° 0 mm 2 mps 757 mmHg 73%
    08:00 +18°C° 0 mm 2 mps 757 mmHg 70%
    09:00 +19°C° 0 mm 3 mps 757 mmHg 68%
    10:00 +20°C° 0 mm 3 mps 757 mmHg 66%
    11:00 +21°C° 0 mm 3 mps 757 mmHg 63%
    12:00 +22°C° 0 mm 3 mps 756 mmHg 61%
    13:00 +22°C° 0 mm 3 mps 756 mmHg 60%
    14:00 +22°C° 0 mm 4 mps 756 mmHg 59%
    15:00 +22°C° 0 mm 4 mps 756 mmHg 58%
    16:00 +20°C° 0.4 mm 4 mps 756 mmHg 68%
    17:00 +19°C° 0.4 mm 3 mps 756 mmHg 77%
    18:00 +18°C° 0.4 mm 3 mps 756 mmHg 87%
    19:00 +17°C° 0.6 mm 3 mps 756 mmHg 88%
    20:00 +17°C° 0.6 mm 3 mps 756 mmHg 90%
    21:00 +17°C° 0.6 mm 3 mps 757 mmHg 91%
    22:00 +16°C° 0.1 mm 3 mps 757 mmHg 90%
    23:00 +14°C° 0.1 mm 3 mps 757 mmHg 90%

    29 August, Thursday

    Time Temperature Precipitation Wind Pressure Humidity
    00:00 +14°C° 0.1 mm 4 mps 757 mmHg 89%
    01:00 +13°C° 0 mm 4 mps 758 mmHg 88%
    02:00 +12°C° 0 mm 4 mps 758 mmHg 87%
    03:00 +12°C° 0 mm 4 mps 758 mmHg 86%
    04:00 +11°C° 0 mm 4 mps 758 mmHg 84%
    05:00 +11°C° 0 mm 3 mps 758 mmHg 83%
    06:00 +11°C° 0 mm 3 mps 759 mmHg 82%
    07:00 +12°C° 0 mm 4 mps 759 mmHg 77%
    08:00 +14°C° 0 mm 4 mps 759 mmHg 72%
    09:00 +17°C° 0 mm 4 mps 760 mmHg 67%
    10:00 +17°C° 0 mm 5 mps 760 mmHg 64%
    11:00 +17°C° 0 mm 5 mps 760 mmHg 62%
    12:00 +19°C° 0 mm 6 mps 760 mmHg 59%
    13:00 +19°C° 0 mm 6 mps 760 mmHg 59%
    14:00 +17°C° 0 mm 7 mps 760 mmHg 60%
    15:00 +17°C° 0 mm 7 mps 760 mmHg 60%
    16:00 +16°C° 0 mm 7 mps 760 mmHg 65%
    17:00 +16°C° 0 mm 6 mps 760 mmHg 69%
    18:00 +15°C° 0 mm 5 mps 761 mmHg 73%
    19:00 +14°C° 0 mm 6 mps 761 mmHg 76%
    20:00 +14°C° 0 mm 6 mps 761 mmHg 78%
    21:00 +13°C° 0 mm 6 mps 761 mmHg 80%
    22:00 +13°C° 0 mm 6 mps 761 mmHg 81%
    23:00 +13°C° 0 mm 6 mps 761 mmHg 82%

    30 August, Friday

    Time Temperature Precipitation Wind Pressure Humidity
    00:00 +13°C° 0 mm 6 mps 761 mmHg 83%
    01:00 +13°C° 0 mm 5 mps 760 mmHg 83%
    02:00 +14°C° 0 mm 5 mps 760 mmHg 83%
    03:00 +14°C° 0 mm 5 mps 760 mmHg 84%
    04:00 +14°C° 0 mm 5 mps 760 mmHg 86%
    05:00 +13°C° 0 mm 5 mps 760 mmHg 87%
    06:00 +13°C° 0 mm 5 mps 760 mmHg 89%
    07:00 +14°C° 0 mm 5 mps 760 mmHg 84%
    08:00 +16°C° 0 mm 6 mps 760 mmHg 79%
    09:00 +17°C° 0 mm 6 mps 760 mmHg 73%
    10:00 +18°C° 0 mm 7 mps 760 mmHg 70%
    11:00 +18°C° 0 mm 7 mps 760 mmHg 67%
    12:00 +20°C° 0 mm 8 mps 760 mmHg 63%
    13:00 +20°C° 0 mm 8 mps 759 mmHg 64%
    14:00 +20°C° 0 mm 8 mps 759 mmHg 66%
    15:00 +20°C° 0 mm 8 mps 758 mmHg 67%
    16:00 +18°C° 0 mm 8 mps 758 mmHg 69%
    17:00 +18°C° 0 mm 8 mps 757 mmHg 72%
    18:00 +17°C° 0 mm 8 mps 757 mmHg 74%
    19:00 +17°C° 0 mm 8 mps 756 mmHg 75%
    20:00 +17°C° 0 mm 8 mps 756 mmHg 77%
    21:00 +16°C° 0 mm 9 mps 756 mmHg 78%
    22:00 +16°C° 0.1 mm 9 mps 755 mmHg 79%
    23:00 +16°C° 0.1 mm 9 mps 755 mmHg 80%

    31 August, Saturday

    Time Temperature Precipitation Wind Pressure Humidity
    00:00 +16°C° 0.1 mm 9 mps 754 mmHg 82%
    01:00 +16°C° 0.1 mm 9 mps 754 mmHg 82%
    02:00 +16°C° 0.1 mm 9 mps 753 mmHg 83%
    03:00 +16°C° 0.1 mm 8 mps 753 mmHg 84%
    04:00 +15°C° 0.6 mm 7 mps 753 mmHg 86%
    05:00 +14°C° 0.6 mm 5 mps 753 mmHg 88%
    06:00 +14°C° 0.6 mm 4 mps 753 mmHg 90%
    07:00 +14°C° 0.3 mm 4 mps 753 mmHg 86%
    08:00 +15°C° 0.3 mm 4 mps 753 mmHg 82%
    09:00 +15°C° 0.3 mm 5 mps 753 mmHg 78%
    10:00 +16°C° 0 mm 5 mps 754 mmHg 71%
    11:00 +16°C° 0 mm 6 mps 754 mmHg 63%
    12:00 +17°C° 0 mm 7 mps 754 mmHg 56%
    13:00 +17°C° 0 mm 7 mps 754 mmHg 58%
    14:00 +17°C° 0 mm 7 mps 754 mmHg 59%
    15:00 +16°C° 0 mm 8 mps 754 mmHg 61%
    16:00 +16°C° 0 mm 7 mps 754 mmHg 65%
    17:00 +15°C° 0 mm 7 mps 754 mmHg 69%
    18:00 +14°C° 0 mm 7 mps 754 mmHg 73%
    19:00 +13°C° 0 mm 6 mps 755 mmHg 75%
    20:00 +11°C° 0 mm 6 mps 755 mmHg 76%
    21:00 +11°C° 0 mm 6 mps 756 mmHg 78%
    22:00 +10°C° 0 mm 6 mps 756 mmHg 79%
    23:00 +10°C° 0 mm 5 mps 756 mmHg 81%
    Show more